TimeCDT,TemperatureF,Dew PointF,Humidity,Sea Level PressureIn,VisibilityMPH,Wind Direction,Wind SpeedMPH,Gust SpeedMPH,PrecipitationIn,Events,Conditions,WindDirDegrees,DateUTC
12:54 AM,43.0,41.0,93,29.71,5.0,North,9.2,-,0.06,Rain,Light Rain,350,2013-04-18 05:54:00
1:38 AM,43.0,39.9,89,29.70,3.0,North,10.4,-,0.15,Rain,Rain,350,2013-04-18 06:38:00
1:54 AM,43.0,39.9,89,29.70,5.0,North,12.7,-,0.17,Rain,Light Rain,360,2013-04-18 06:54:00
2:41 AM,42.1,39.9,92,29.64,4.0,NNE,16.1,19.6,0.02,Rain,Rain,20,2013-04-18 07:41:00
2:54 AM,42.1,39.9,92,29.67,3.0,North,9.2,-,0.07,Rain,Light Rain,350,2013-04-18 07:54:00
3:54 AM,42.1,39.0,89,29.65,3.0,North,10.4,-,0.19,Rain,Rain,350,2013-04-18 08:54:00
4:54 AM,41.0,37.9,89,29.67,6.0,North,9.2,-,0.04,Rain,Light Rain,350,2013-04-18 09:54:00
5:54 AM,39.9,37.0,89,29.62,4.0,NE,17.3,-,0.01,Rain,Rain,40,2013-04-18 10:54:00
6:03 AM,39.9,37.0,89,29.55,2.5,NE,23.0,26.5,0.06,Rain,Heavy Rain,50,2013-04-18 11:03:00
6:13 AM,39.9,37.0,89,29.56,4.0,NNE,18.4,27.6,0.10,Rain,Light Rain,30,2013-04-18 11:13:00
6:27 AM,39.9,37.0,89,29.60,10.0,NNE,15.0,23.0,0.11,,Overcast,20,2013-04-18 11:27:00
6:54 AM,39.9,37.0,89,29.61,10.0,NNE,17.3,24.2,0.11,,Overcast,30,2013-04-18 11:54:00
7:54 AM,39.9,37.0,89,29.63,9.0,North,8.1,-,0.00,Rain,Light Rain,350,2013-04-18 12:54:00
8:45 AM,39.9,37.0,89,29.59,2.0,NNE,9.2,-,0.03,Rain,Light Rain,30,2013-04-18 13:45:00
8:54 AM,39.9,37.0,89,29.58,2.0,NNE,8.1,-,0.03,Rain,Light Rain,20,2013-04-18 13:54:00
9:09 AM,39.9,37.9,93,29.57,5.0,North,8.1,-,0.01,,Light Drizzle,350,2013-04-18 14:09:00
9:28 AM,39.9,37.0,89,29.55,4.0,NNW,9.2,-,0.01,,Light Drizzle,340,2013-04-18 14:28:00
9:43 AM,39.9,37.0,89,29.54,2.0,NNW,8.1,-,0.01,,Light Drizzle,340,2013-04-18 14:43:00
9:54 AM,39.9,37.0,89,29.57,2.0,NNW,10.4,-,0.02,Rain,Light Rain,330,2013-04-18 14:54:00
9:59 AM,39.9,37.0,89,29.56,1.2,NW,10.4,-,0.00,Rain,Rain,320,2013-04-18 14:59:00
10:49 AM,39.2,37.4,93,29.57,1.5,NW,15.0,-,0.04,Rain,Light Rain,310,2013-04-18 15:49:00
10:54 AM,39.9,37.0,89,29.58,1.5,NW,16.1,-,0.06,Rain,Light Rain,310,2013-04-18 15:54:00
11:54 AM,39.0,36.0,89,29.57,1.5,NW,18.4,27.6,0.01,,Light Drizzle,320,2013-04-18 16:54:00
12:54 PM,39.0,36.0,89,29.59,3.0,NW,15.0,24.2,0.01,,Light Drizzle,320,2013-04-18 17:54:00
1:11 PM,39.0,35.1,86,29.56,7.0,NW,20.7,27.6,0.00,,Light Drizzle,320,2013-04-18 18:11:00
1:54 PM,39.0,35.1,86,29.60,8.0,NW,18.4,-,0.00,,Overcast,310,2013-04-18 18:54:00
2:25 PM,39.9,35.1,83,29.58,9.0,NW,19.6,33.4,0.00,Rain,Light Rain,310,2013-04-18 19:25:00
2:51 PM,39.2,33.8,81,29.59,9.0,NW,20.7,-,0.00,Rain,Light Rain,310,2013-04-18 19:51:00
2:54 PM,39.0,34.0,82,29.61,8.0,WNW,23.0,28.8,0.00,Rain,Light Rain Showers,300,2013-04-18 19:54:00
3:29 PM,39.0,33.1,79,29.59,9.0,NW,19.6,-,0.00,,Light Drizzle,310,2013-04-18 20:29:00
3:54 PM,37.9,33.1,83,29.62,6.0,NW,24.2,33.4,0.00,Snow,Light Snow,310,2013-04-18 20:54:00
4:54 PM,37.9,30.9,76,29.65,10.0,WNW,21.9,31.1,0.00,Snow,Light Snow,300,2013-04-18 21:54:00
5:54 PM,37.0,30.0,76,29.67,10.0,WNW,26.5,32.2,0.00,Snow,Light Snow,290,2013-04-18 22:54:00
6:54 PM,37.0,28.9,73,29.70,10.0,WNW,26.5,41.4,0.00,Snow,Light Snow,290,2013-04-18 23:54:00
7:54 PM,37.0,30.0,76,29.72,9.0,WNW,23.0,31.1,0.00,Snow,Light Snow,290,2013-04-19 00:54:00
8:54 PM,36.0,28.9,76,29.75,9.0,WNW,21.9,33.4,0.00,Snow,Light Snow,290,2013-04-19 01:54:00
9:54 PM,36.0,28.9,76,29.76,9.0,WNW,24.2,34.5,0.00,Snow,Light Snow,290,2013-04-19 02:54:00
10:54 PM,35.1,28.9,78,29.75,9.0,WNW,23.0,33.4,0.00,Snow,Light Snow,290,2013-04-19 03:54:00
11:06 PM,35.1,28.0,76,29.72,9.0,WNW,23.0,32.2,0.00,Snow,Light Snow,290,2013-04-19 04:06:00
11:26 PM,35.1,28.0,76,29.72,9.0,WNW,24.2,31.1,0.00,Snow,Light Snow,290,2013-04-19 04:26:00
11:54 PM,35.1,28.0,76,29.74,9.0,WNW,27.6,35.7,0.00,Snow,Light Snow,290,2013-04-19 04:54:00